Year,Month,Day,Hour,Minute,Value (Times are PST for temperature in C)
2007,07,12,00,00,25.20
2007,07,12,00,01,25.20
2007,07,12,00,02,25.20
2007,07,12,00,03,25.20
2007,07,12,00,04,25.20
2007,07,12,00,05,25.20
2007,07,12,00,06,25.20
2007,07,12,00,07,25.20
2007,07,12,00,08,25.20
2007,07,12,00,09,25.20
2007,07,12,00,10,25.30
2007,07,12,00,11,25.30
2007,07,12,00,12,25.30
2007,07,12,00,13,25.40
2007,07,12,00,14,25.40
2007,07,12,00,15,25.40
2007,07,12,00,16,25.40
2007,07,12,00,17,25.40
2007,07,12,00,18,25.40
2007,07,12,00,19,25.40
2007,07,12,00,20,25.40
2007,07,12,00,21,25.40
2007,07,12,00,22,25.40
2007,07,12,00,23,25.40
2007,07,12,00,24,25.30
2007,07,12,00,25,25.30
2007,07,12,00,26,25.30
2007,07,12,00,27,25.30
2007,07,12,00,28,25.30
2007,07,12,00,29,25.20
2007,07,12,00,30,25.20
2007,07,12,00,31,25.20
2007,07,12,00,32,25.20
2007,07,12,00,33,25.20
2007,07,12,00,34,25.20
2007,07,12,00,35,25.20
2007,07,12,00,36,25.10
2007,07,12,00,37,25.10
2007,07,12,00,38,25.00
2007,07,12,00,39,25.00
2007,07,12,00,40,25.00
2007,07,12,00,41,24.90
2007,07,12,00,42,24.90
2007,07,12,00,43,24.80
2007,07,12,00,44,24.80
2007,07,12,00,45,24.70
2007,07,12,00,46,24.70
2007,07,12,00,47,24.70
2007,07,12,00,48,24.60
2007,07,12,00,49,24.60
2007,07,12,00,50,24.50
2007,07,12,00,51,24.50
2007,07,12,00,52,24.50
2007,07,12,00,53,24.40
2007,07,12,00,54,24.30
2007,07,12,00,55,24.30
2007,07,12,00,56,24.10
2007,07,12,00,57,24.00
2007,07,12,00,58,23.80
2007,07,12,00,59,23.70
2007,07,12,01,00,23.60
2007,07,12,01,01,23.40
2007,07,12,01,02,23.30
2007,07,12,01,03,23.30
2007,07,12,01,04,23.10
2007,07,12,01,05,23.10
2007,07,12,01,06,23.00
2007,07,12,01,07,22.90
2007,07,12,01,08,22.80
2007,07,12,01,09,22.70
2007,07,12,01,10,22.70
2007,07,12,01,11,22.60
2007,07,12,01,12,22.50
2007,07,12,01,13,22.50
2007,07,12,01,14,22.40
2007,07,12,01,15,22.40
2007,07,12,01,16,22.30
2007,07,12,01,17,22.20
2007,07,12,01,18,22.10
2007,07,12,01,19,22.10
2007,07,12,01,20,22.00
2007,07,12,01,21,22.00
2007,07,12,01,22,21.90
2007,07,12,01,23,21.90
2007,07,12,01,24,21.80
2007,07,12,01,25,21.80
2007,07,12,01,26,21.70
2007,07,12,01,27,21.70
2007,07,12,01,28,21.60
2007,07,12,01,29,21.60
2007,07,12,01,30,21.60
2007,07,12,01,31,21.60
2007,07,12,01,32,21.50
2007,07,12,01,33,21.40
2007,07,12,01,34,21.40
2007,07,12,01,35,21.30
2007,07,12,01,36,21.30
2007,07,12,01,37,21.30
2007,07,12,01,38,21.30
2007,07,12,01,39,21.30
2007,07,12,01,40,21.20
2007,07,12,01,41,21.20
2007,07,12,01,42,21.20
2007,07,12,01,43,21.10
2007,07,12,01,44,21.10
2007,07,12,01,45,21.10
2007,07,12,01,46,21.10
2007,07,12,01,47,21.10
2007,07,12,01,48,21.00
2007,07,12,01,49,21.00
2007,07,12,01,50,21.00
2007,07,12,01,51,21.00
2007,07,12,01,52,20.90
2007,07,12,01,53,20.90
2007,07,12,01,54,20.90
2007,07,12,01,55,20.80
2007,07,12,01,56,20.80
2007,07,12,01,57,20.70
2007,07,12,01,58,20.70
2007,07,12,01,59,20.60
2007,07,12,02,00,20.60
2007,07,12,02,01,20.50
2007,07,12,02,02,20.50
2007,07,12,02,03,20.40
2007,07,12,02,04,20.40
2007,07,12,02,05,20.30
2007,07,12,02,06,20.30
2007,07,12,02,07,20.20
2007,07,12,02,08,20.20
2007,07,12,02,09,20.10
2007,07,12,02,10,20.10
2007,07,12,02,11,20.00
2007,07,12,02,12,19.90
2007,07,12,02,13,19.90
2007,07,12,02,14,19.90
2007,07,12,02,15,19.90
2007,07,12,02,16,19.80
2007,07,12,02,17,19.80
2007,07,12,02,18,19.70
2007,07,12,02,19,19.70
2007,07,12,02,20,19.70
2007,07,12,02,21,19.60
2007,07,12,02,22,19.60
2007,07,12,02,23,19.60
2007,07,12,02,24,19.50
2007,07,12,02,25,19.50
2007,07,12,02,26,19.40
2007,07,12,02,27,19.40
2007,07,12,02,28,19.40
2007,07,12,02,29,19.30
2007,07,12,02,30,19.30
2007,07,12,02,31,19.30
2007,07,12,02,32,19.20
2007,07,12,02,33,19.20
2007,07,12,02,34,19.10
2007,07,12,02,35,19.10
2007,07,12,02,36,19.10
2007,07,12,02,37,19.10
2007,07,12,02,38,19.10
2007,07,12,02,39,19.10
2007,07,12,02,40,19.10
2007,07,12,02,41,19.10
2007,07,12,02,42,19.10
2007,07,12,02,43,19.10
2007,07,12,02,44,19.10
2007,07,12,02,45,19.00
2007,07,12,02,46,18.90
2007,07,12,02,47,18.90
2007,07,12,02,48,18.90
2007,07,12,02,49,18.90
2007,07,12,02,50,18.90
2007,07,12,02,51,18.90
2007,07,12,02,52,18.90
2007,07,12,02,53,18.90
2007,07,12,02,54,18.90
2007,07,12,02,55,18.90
2007,07,12,02,56,18.90
2007,07,12,02,57,18.90
2007,07,12,02,58,18.90
2007,07,12,02,59,18.90
2007,07,12,03,00,18.90
2007,07,12,03,01,18.90
2007,07,12,03,02,19.10
2007,07,12,03,03,19.10
2007,07,12,03,04,19.10
2007,07,12,03,05,19.10
2007,07,12,03,06,19.10
2007,07,12,03,07,19.10
2007,07,12,03,08,19.10
2007,07,12,03,09,19.10
2007,07,12,03,10,19.10
2007,07,12,03,11,19.10
2007,07,12,03,12,19.10
2007,07,12,03,13,19.10
2007,07,12,03,14,19.10
2007,07,12,03,15,19.20
2007,07,12,03,16,19.20
2007,07,12,03,17,19.20
2007,07,12,03,18,19.20
2007,07,12,03,19,19.20
2007,07,12,03,20,19.30
2007,07,12,03,21,19.30
2007,07,12,03,22,19.30
2007,07,12,03,23,19.30
2007,07,12,03,24,19.30
2007,07,12,03,25,19.30
2007,07,12,03,26,19.30
2007,07,12,03,27,19.30
2007,07,12,03,28,19.30
2007,07,12,03,29,19.30
2007,07,12,03,30,19.30
2007,07,12,03,31,19.40
2007,07,12,03,32,19.40
2007,07,12,03,33,19.40
2007,07,12,03,34,19.40
2007,07,12,03,35,19.50
2007,07,12,03,36,19.50
2007,07,12,03,37,19.50
2007,07,12,03,38,19.50
2007,07,12,03,39,19.50
2007,07,12,03,40,19.60
2007,07,12,03,41,19.60
2007,07,12,03,42,19.60
2007,07,12,03,43,19.60
2007,07,12,03,44,19.50
2007,07,12,03,45,19.50
2007,07,12,03,46,19.50
2007,07,12,03,47,19.50
2007,07,12,03,48,19.50
2007,07,12,03,49,19.40
2007,07,12,03,50,19.40
2007,07,12,03,51,19.40
2007,07,12,03,52,19.40
2007,07,12,03,53,19.30
2007,07,12,03,54,19.30
2007,07,12,03,55,19.30
2007,07,12,03,56,19.20
2007,07,12,03,57,19.20
2007,07,12,03,58,19.20
2007,07,12,03,59,19.10
2007,07,12,04,00,19.10
2007,07,12,04,01,19.10
2007,07,12,04,02,19.10
2007,07,12,04,03,19.10
2007,07,12,04,04,19.10
2007,07,12,04,05,19.00
2007,07,12,04,06,18.90
2007,07,12,04,07,18.90
2007,07,12,04,08,18.90
2007,07,12,04,09,18.90
2007,07,12,04,10,18.90
2007,07,12,04,11,18.90
2007,07,12,04,12,18.80
2007,07,12,04,13,18.80
2007,07,12,04,14,18.80
2007,07,12,04,15,18.80
2007,07,12,04,16,18.70
2007,07,12,04,17,18.70
2007,07,12,04,18,18.70
2007,07,12,04,19,18.70
2007,07,12,04,20,18.70
2007,07,12,04,21,18.60
2007,07,12,04,22,18.60
2007,07,12,04,23,18.60
2007,07,12,04,24,18.60
2007,07,12,04,25,18.60
2007,07,12,04,26,18.60
2007,07,12,04,27,18.60
2007,07,12,04,28,18.60
2007,07,12,04,29,18.60
2007,07,12,04,30,18.60
2007,07,12,04,31,18.60
2007,07,12,04,32,18.60
2007,07,12,04,33,18.60
2007,07,12,04,34,18.60
2007,07,12,04,35,18.50
2007,07,12,04,36,18.50
2007,07,12,04,37,18.50
2007,07,12,04,38,18.50
2007,07,12,04,39,18.50
2007,07,12,04,40,18.50
2007,07,12,04,41,18.50
2007,07,12,04,42,18.40
2007,07,12,04,43,18.40
2007,07,12,04,44,18.40
2007,07,12,04,45,18.40
2007,07,12,04,46,18.40
2007,07,12,04,47,18.30
2007,07,12,04,48,18.30
2007,07,12,04,49,18.30
2007,07,12,04,50,18.30
2007,07,12,04,51,18.30
2007,07,12,04,52,18.30
2007,07,12,04,53,18.30
2007,07,12,04,54,18.30
2007,07,12,04,55,18.30
2007,07,12,04,56,18.30
2007,07,12,04,57,18.30
2007,07,12,04,58,18.20
2007,07,12,04,59,18.20
2007,07,12,05,00,18.20
2007,07,12,05,01,18.20
2007,07,12,05,02,18.20
2007,07,12,05,03,18.20
2007,07,12,05,04,18.20
2007,07,12,05,05,18.20
2007,07,12,05,06,18.10
2007,07,12,05,07,18.10
2007,07,12,05,08,18.10
2007,07,12,05,09,18.10
2007,07,12,05,10,18.10
2007,07,12,05,11,18.00
2007,07,12,05,12,17.90
2007,07,12,05,13,17.90
2007,07,12,05,14,17.90
2007,07,12,05,15,17.90
2007,07,12,05,16,17.90
2007,07,12,05,17,17.90
2007,07,12,05,18,17.90
2007,07,12,05,19,17.90
2007,07,12,05,20,17.90
2007,07,12,05,21,17.90
2007,07,12,05,22,17.90
2007,07,12,05,23,17.90
2007,07,12,05,24,17.90
2007,07,12,05,25,17.90
2007,07,12,05,26,17.90
2007,07,12,05,27,17.90
2007,07,12,05,28,17.90
2007,07,12,05,29,17.90
2007,07,12,05,30,17.90
2007,07,12,05,31,17.90
2007,07,12,05,32,17.90
2007,07,12,05,33,17.90
2007,07,12,05,34,17.90
2007,07,12,05,35,17.90
2007,07,12,05,36,17.90
2007,07,12,05,37,17.90
2007,07,12,05,38,17.90
2007,07,12,05,39,17.90
2007,07,12,05,40,17.90
2007,07,12,05,41,17.90
2007,07,12,05,42,17.90
2007,07,12,05,43,17.90
2007,07,12,05,44,17.90
2007,07,12,05,45,17.90
2007,07,12,05,46,17.90
2007,07,12,05,47,17.80
2007,07,12,05,48,17.80
2007,07,12,05,49,17.80
2007,07,12,05,50,17.80
2007,07,12,05,51,17.80
2007,07,12,05,52,17.70
2007,07,12,05,53,17.70
2007,07,12,05,54,17.70
2007,07,12,05,55,17.70
2007,07,12,05,56,17.70
2007,07,12,05,57,17.60
2007,07,12,05,58,17.60
2007,07,12,05,59,17.60
2007,07,12,06,00,17.60
2007,07,12,06,01,17.60
2007,07,12,06,02,17.50
2007,07,12,06,03,17.50
2007,07,12,06,04,17.50
2007,07,12,06,05,17.50
2007,07,12,06,06,17.50
2007,07,12,06,07,17.50
2007,07,12,06,08,17.50
2007,07,12,06,09,17.50
2007,07,12,06,10,17.50
2007,07,12,06,11,17.60
2007,07,12,06,12,17.60
2007,07,12,06,13,17.60
2007,07,12,06,14,17.70
2007,07,12,06,15,17.70
2007,07,12,06,16,17.80
2007,07,12,06,17,17.80
2007,07,12,06,18,17.90
2007,07,12,06,19,17.90
2007,07,12,06,20,17.90
2007,07,12,06,21,17.90
2007,07,12,06,22,17.90
2007,07,12,06,23,17.90
2007,07,12,06,24,17.90
2007,07,12,06,25,17.90
2007,07,12,06,26,17.90
2007,07,12,06,27,17.90
2007,07,12,06,28,17.90
2007,07,12,06,29,17.90
2007,07,12,06,30,17.90
2007,07,12,06,31,17.90
2007,07,12,06,32,17.90
2007,07,12,06,33,17.90
2007,07,12,06,34,17.90
2007,07,12,06,35,17.90
2007,07,12,06,36,17.90
2007,07,12,06,37,17.90
2007,07,12,06,38,17.90
2007,07,12,06,39,17.90
2007,07,12,06,40,17.90
2007,07,12,06,41,17.90
2007,07,12,06,42,18.10
2007,07,12,06,43,18.10
2007,07,12,06,44,18.10
2007,07,12,06,45,18.10
2007,07,12,06,46,18.20
2007,07,12,06,47,18.20
2007,07,12,06,48,18.20
2007,07,12,06,49,18.20
2007,07,12,06,50,18.20
2007,07,12,06,51,18.20
2007,07,12,06,52,18.20
2007,07,12,06,53,18.20
2007,07,12,06,54,18.20
2007,07,12,06,55,18.30
2007,07,12,06,56,18.30
2007,07,12,06,57,18.30
2007,07,12,06,58,18.30
2007,07,12,06,59,18.30
2007,07,12,07,00,18.30
2007,07,12,07,01,18.40
2007,07,12,07,02,18.40
2007,07,12,07,03,18.40
2007,07,12,07,04,18.40
2007,07,12,07,05,18.50
2007,07,12,07,06,18.50
2007,07,12,07,07,18.60
2007,07,12,07,08,18.70
2007,07,12,07,09,18.70
2007,07,12,07,10,18.80
2007,07,12,07,11,18.90
2007,07,12,07,12,19.00
2007,07,12,07,13,19.10
2007,07,12,07,14,19.20
2007,07,12,07,15,19.30
2007,07,12,07,16,19.30
2007,07,12,07,17,19.40
2007,07,12,07,18,19.40
2007,07,12,07,19,19.40
2007,07,12,07,20,19.40
2007,07,12,07,21,19.40
2007,07,12,07,22,19.40
2007,07,12,07,23,19.40
2007,07,12,07,24,19.40
2007,07,12,07,25,19.40
2007,07,12,07,26,19.40
2007,07,12,07,27,19.40
2007,07,12,07,28,19.40
2007,07,12,07,29,19.40
2007,07,12,07,30,19.50
2007,07,12,07,31,19.50
2007,07,12,07,32,19.50
2007,07,12,07,33,19.50
2007,07,12,07,34,19.50
2007,07,12,07,35,19.50
2007,07,12,07,36,19.50
2007,07,12,07,37,19.50
2007,07,12,07,38,19.60
2007,07,12,07,39,19.60
2007,07,12,07,40,19.60
2007,07,12,07,41,19.60
2007,07,12,07,42,19.70
2007,07,12,07,43,19.70
2007,07,12,07,44,19.80
2007,07,12,07,45,19.80
2007,07,12,07,46,19.90
2007,07,12,07,47,19.90
2007,07,12,07,48,19.90
2007,07,12,07,49,19.90
2007,07,12,07,50,19.90
2007,07,12,07,51,19.90
2007,07,12,07,52,19.90
2007,07,12,07,53,19.80
2007,07,12,07,54,19.80
2007,07,12,07,55,19.70
2007,07,12,07,56,19.70
2007,07,12,07,57,19.60
2007,07,12,07,58,19.50
2007,07,12,07,59,19.50
2007,07,12,08,00,19.40
2007,07,12,08,01,19.30
2007,07,12,08,02,19.30
2007,07,12,08,03,19.20
2007,07,12,08,04,19.20
2007,07,12,08,05,19.20
2007,07,12,08,06,19.20
2007,07,12,08,07,19.10
2007,07,12,08,08,19.10
2007,07,12,08,09,19.10
2007,07,12,08,10,19.10
2007,07,12,08,11,19.10
2007,07,12,08,12,19.20
2007,07,12,08,13,19.20
2007,07,12,08,14,19.20
2007,07,12,08,15,19.20
2007,07,12,08,16,19.20
2007,07,12,08,17,19.20
2007,07,12,08,18,19.20
2007,07,12,08,19,19.10
2007,07,12,08,20,19.10
2007,07,12,08,21,19.10
2007,07,12,08,22,19.10
2007,07,12,08,23,19.10
2007,07,12,08,24,19.20
2007,07,12,08,25,19.20
2007,07,12,08,26,19.20
2007,07,12,08,27,19.20
2007,07,12,08,28,19.20
2007,07,12,08,29,19.20
2007,07,12,08,30,19.20
2007,07,12,08,31,19.20
2007,07,12,08,32,19.20
2007,07,12,08,33,19.30
2007,07,12,08,34,19.30
2007,07,12,08,35,19.30
2007,07,12,08,36,19.30
2007,07,12,08,37,19.40
2007,07,12,08,38,19.40
2007,07,12,08,39,19.40
2007,07,12,08,40,19.40
2007,07,12,08,41,19.50
2007,07,12,08,42,19.50
2007,07,12,08,43,19.50
2007,07,12,08,44,19.50
2007,07,12,08,45,19.50
2007,07,12,08,46,19.50
2007,07,12,08,47,19.50
2007,07,12,08,48,19.50
2007,07,12,08,49,19.50
2007,07,12,08,50,19.60
2007,07,12,08,51,19.60
2007,07,12,08,52,19.60
2007,07,12,08,53,19.70
2007,07,12,08,54,19.70
2007,07,12,08,55,19.70
2007,07,12,08,56,19.80
2007,07,12,08,57,19.80
2007,07,12,08,58,19.80
2007,07,12,08,59,19.80
2007,07,12,09,00,19.80
2007,07,12,09,01,19.80
2007,07,12,09,02,19.80
2007,07,12,09,03,19.80
2007,07,12,09,04,19.80
2007,07,12,09,05,19.80
2007,07,12,09,06,19.80
2007,07,12,09,07,19.90
2007,07,12,09,08,19.90
2007,07,12,09,09,19.90
2007,07,12,09,10,19.90
2007,07,12,09,11,19.90
2007,07,12,09,12,19.90
2007,07,12,09,13,19.90
2007,07,12,09,14,19.90
2007,07,12,09,15,19.90
2007,07,12,09,16,19.90
2007,07,12,09,17,19.90
2007,07,12,09,18,19.90
2007,07,12,09,19,19.90
2007,07,12,09,20,19.90
2007,07,12,09,21,19.90
2007,07,12,09,22,19.90
2007,07,12,09,23,20.10
2007,07,12,09,24,20.10
2007,07,12,09,25,20.10
2007,07,12,09,26,20.10
2007,07,12,09,27,20.10
2007,07,12,09,28,20.20
2007,07,12,09,29,20.20
2007,07,12,09,30,20.20
2007,07,12,09,31,20.20
2007,07,12,09,32,20.20
2007,07,12,09,33,20.20
2007,07,12,09,34,20.20
2007,07,12,09,35,20.30
2007,07,12,09,36,20.30
2007,07,12,09,37,20.40
2007,07,12,09,38,20.40
2007,07,12,09,39,20.40
2007,07,12,09,40,20.50
2007,07,12,09,41,20.50
2007,07,12,09,42,20.60
2007,07,12,09,43,20.60
2007,07,12,09,44,20.70
2007,07,12,09,45,20.70
2007,07,12,09,46,20.80
2007,07,12,09,47,20.80
2007,07,12,09,48,20.90
2007,07,12,09,49,20.90
2007,07,12,09,50,21.00
2007,07,12,09,51,21.10
2007,07,12,09,52,21.20
2007,07,12,09,53,21.20
2007,07,12,09,54,21.30
2007,07,12,09,55,21.40
2007,07,12,09,56,21.40
2007,07,12,09,57,21.50
2007,07,12,09,58,21.60
2007,07,12,09,59,21.60
2007,07,12,10,00,21.70
2007,07,12,10,01,21.80
2007,07,12,10,02,21.80
2007,07,12,10,03,21.80
2007,07,12,10,04,21.80
2007,07,12,10,05,21.80
2007,07,12,10,06,21.90
2007,07,12,10,07,21.80
2007,07,12,10,08,21.80
2007,07,12,10,09,21.80
2007,07,12,10,10,21.80
2007,07,12,10,11,21.80
2007,07,12,10,12,21.80
2007,07,12,10,13,21.80
2007,07,12,10,14,21.70
2007,07,12,10,15,21.70
2007,07,12,10,16,21.70
2007,07,12,10,17,21.70
2007,07,12,10,18,21.70
2007,07,12,10,19,21.80
2007,07,12,10,20,21.90
2007,07,12,10,21,21.90
2007,07,12,10,22,22.00
2007,07,12,10,23,22.00
2007,07,12,10,24,22.10
2007,07,12,10,25,22.10
2007,07,12,10,26,22.20
2007,07,12,10,27,22.10
2007,07,12,10,28,22.10
2007,07,12,10,29,22.20
2007,07,12,10,30,22.20
2007,07,12,10,31,22.30
2007,07,12,10,32,22.30
2007,07,12,10,33,22.20
2007,07,12,10,34,22.20
2007,07,12,10,35,22.10
2007,07,12,10,36,22.10
2007,07,12,10,37,22.10
2007,07,12,10,38,22.00
2007,07,12,10,39,22.00
2007,07,12,10,40,22.00
2007,07,12,10,41,22.10
2007,07,12,10,42,22.20
2007,07,12,10,43,22.30
2007,07,12,10,44,22.30
2007,07,12,10,45,22.30
2007,07,12,10,46,22.30
2007,07,12,10,47,22.30
2007,07,12,10,48,22.30
2007,07,12,10,49,22.30
2007,07,12,10,50,22.30
2007,07,12,10,51,22.30
2007,07,12,10,52,22.20
2007,07,12,10,53,22.20
2007,07,12,10,54,22.20
2007,07,12,10,55,22.20
2007,07,12,10,56,22.20
2007,07,12,10,57,22.30
2007,07,12,10,58,22.30
2007,07,12,10,59,22.30
2007,07,12,11,00,22.40
2007,07,12,11,01,22.50
2007,07,12,11,02,22.60
2007,07,12,11,03,22.60
2007,07,12,11,04,22.60
2007,07,12,11,05,22.70
2007,07,12,11,06,22.60
2007,07,12,11,07,22.50
2007,07,12,11,08,22.50
2007,07,12,11,09,22.50
2007,07,12,11,10,22.40
2007,07,12,11,11,22.20
2007,07,12,11,12,22.00
2007,07,12,11,13,21.90
2007,07,12,11,14,21.80
2007,07,12,11,15,21.60
2007,07,12,11,16,21.40
2007,07,12,11,17,21.30
2007,07,12,11,18,21.30
2007,07,12,11,19,21.30
2007,07,12,11,20,21.40
2007,07,12,11,21,21.50
2007,07,12,11,22,21.60
2007,07,12,11,23,21.60
2007,07,12,11,24,21.60
2007,07,12,11,25,21.60
2007,07,12,11,26,21.60
2007,07,12,11,27,21.70
2007,07,12,11,28,21.70
2007,07,12,11,29,21.80
2007,07,12,11,30,21.90
2007,07,12,11,31,21.80
2007,07,12,11,32,21.80
2007,07,12,11,33,21.90
2007,07,12,11,34,22.00
2007,07,12,11,35,22.10
2007,07,12,11,36,22.10
2007,07,12,11,37,22.10
2007,07,12,11,38,22.00
2007,07,12,11,39,21.90
2007,07,12,11,40,21.90
2007,07,12,11,41,22.00
2007,07,12,11,42,22.10
2007,07,12,11,43,22.10
2007,07,12,11,44,22.10
2007,07,12,11,45,22.10
2007,07,12,11,46,22.00
2007,07,12,11,47,22.00
2007,07,12,11,48,22.00
2007,07,12,11,49,21.90
2007,07,12,11,50,21.70
2007,07,12,11,51,21.60
2007,07,12,11,52,21.60
2007,07,12,11,53,21.60
2007,07,12,11,54,21.60
2007,07,12,11,55,21.60
2007,07,12,11,56,21.70
2007,07,12,11,57,21.80
2007,07,12,11,58,21.90
2007,07,12,11,59,22.00
2007,07,12,12,00,22.00
2007,07,12,12,01,22.00
2007,07,12,12,02,22.10
2007,07,12,12,03,22.20
2007,07,12,12,04,22.30
2007,07,12,12,05,22.40
2007,07,12,12,06,22.50
2007,07,12,12,07,22.60
2007,07,12,12,08,22.60
2007,07,12,12,09,22.70
2007,07,12,12,10,22.70
2007,07,12,12,11,22.70
2007,07,12,12,12,22.70
2007,07,12,12,13,22.60
2007,07,12,12,14,22.60
2007,07,12,12,15,22.60
2007,07,12,12,16,22.60
2007,07,12,12,17,22.60
2007,07,12,12,18,22.70
2007,07,12,12,19,22.70
2007,07,12,12,20,22.70
2007,07,12,12,21,22.80
2007,07,12,12,22,22.80
2007,07,12,12,23,22.90
2007,07,12,12,24,22.90
2007,07,12,12,25,23.10
2007,07,12,12,26,23.10
2007,07,12,12,27,23.10
2007,07,12,12,28,23.10
2007,07,12,12,29,23.00
2007,07,12,12,30,22.90
2007,07,12,12,31,22.90
2007,07,12,12,32,23.00
2007,07,12,12,33,23.10
2007,07,12,12,34,23.20
2007,07,12,12,35,23.20
2007,07,12,12,36,23.30
2007,07,12,12,37,23.30
2007,07,12,12,38,23.30
2007,07,12,12,39,23.30
2007,07,12,12,40,23.30
2007,07,12,12,41,23.30
2007,07,12,12,42,23.30
2007,07,12,12,43,23.30
2007,07,12,12,44,23.20
2007,07,12,12,45,23.20
2007,07,12,12,46,23.20
2007,07,12,12,47,23.20
2007,07,12,12,48,23.10
2007,07,12,12,49,23.10
2007,07,12,12,50,23.10
2007,07,12,12,51,23.10
2007,07,12,12,52,23.10
2007,07,12,12,53,23.20
2007,07,12,12,54,23.20
2007,07,12,12,55,23.20
2007,07,12,12,56,23.30
2007,07,12,12,57,23.20
2007,07,12,12,58,23.20
2007,07,12,12,59,23.10
2007,07,12,13,00,23.10
2007,07,12,13,01,23.00
2007,07,12,13,02,22.90
2007,07,12,13,03,22.90
2007,07,12,13,04,22.90
2007,07,12,13,05,22.90
2007,07,12,13,06,22.90
2007,07,12,13,07,22.80
2007,07,12,13,08,22.70
2007,07,12,13,09,22.70
2007,07,12,13,10,22.60
2007,07,12,13,11,22.60
2007,07,12,13,12,22.60
2007,07,12,13,13,22.50
2007,07,12,13,14,22.40
2007,07,12,13,15,22.40
2007,07,12,13,16,22.40
2007,07,12,13,17,22.40
2007,07,12,13,18,22.40
2007,07,12,13,19,22.40
2007,07,12,13,20,22.40
2007,07,12,13,21,22.40
2007,07,12,13,22,22.40
2007,07,12,13,23,22.50
2007,07,12,13,24,22.50
2007,07,12,13,25,22.60
2007,07,12,13,26,22.70
2007,07,12,13,27,22.80
2007,07,12,13,28,22.90
2007,07,12,13,29,23.10
2007,07,12,13,30,23.30
2007,07,12,13,31,23.40
2007,07,12,13,32,23.70
2007,07,12,13,33,23.80
2007,07,12,13,34,23.80
2007,07,12,13,35,23.90
2007,07,12,13,36,23.90
2007,07,12,13,37,23.90
2007,07,12,13,38,24.10
2007,07,12,13,39,24.10
2007,07,12,13,40,24.20
2007,07,12,13,41,24.20
2007,07,12,13,42,24.20
2007,07,12,13,43,24.20
2007,07,12,13,44,24.30
2007,07,12,13,45,24.50
2007,07,12,13,46,24.60
2007,07,12,13,47,24.70
2007,07,12,13,48,24.80
2007,07,12,13,49,24.80
2007,07,12,13,50,24.80
2007,07,12,13,51,24.90
2007,07,12,13,52,24.90
2007,07,12,13,53,24.90
2007,07,12,13,54,24.80
2007,07,12,13,55,24.80
2007,07,12,13,56,24.70
2007,07,12,13,57,24.60
2007,07,12,13,58,24.60
2007,07,12,13,59,24.70
2007,07,12,14,00,24.70
2007,07,12,14,01,24.80
2007,07,12,14,02,24.90
2007,07,12,14,03,24.90
2007,07,12,14,04,24.90
2007,07,12,14,05,24.90
2007,07,12,14,06,24.80
2007,07,12,14,07,24.70
2007,07,12,14,08,24.60
2007,07,12,14,09,24.60
2007,07,12,14,10,24.50
2007,07,12,14,11,24.40
2007,07,12,14,12,24.20
2007,07,12,14,13,23.90
2007,07,12,14,14,23.60
2007,07,12,14,15,23.20
2007,07,12,14,16,23.00
2007,07,12,14,17,22.80
2007,07,12,14,18,22.60
2007,07,12,14,19,22.50
2007,07,12,14,20,22.40
2007,07,12,14,21,22.40
2007,07,12,14,22,22.30
2007,07,12,14,23,22.30
2007,07,12,14,24,22.20
2007,07,12,14,25,22.10
2007,07,12,14,26,22.00
2007,07,12,14,27,22.00
2007,07,12,14,28,22.00
2007,07,12,14,29,22.00
2007,07,12,14,30,22.00
2007,07,12,14,31,22.00
2007,07,12,14,32,22.00
2007,07,12,14,33,22.00
2007,07,12,14,34,22.00
2007,07,12,14,35,21.90
2007,07,12,14,36,21.90
2007,07,12,14,37,21.90
2007,07,12,14,38,22.00
2007,07,12,14,39,22.10
2007,07,12,14,40,22.20
2007,07,12,14,41,22.20
2007,07,12,14,42,22.40
2007,07,12,14,43,22.40
2007,07,12,14,44,22.50
2007,07,12,14,45,22.50
2007,07,12,14,46,22.50
2007,07,12,14,47,22.40
2007,07,12,14,48,22.30
2007,07,12,14,49,22.30
2007,07,12,14,50,22.30
2007,07,12,14,51,22.20
2007,07,12,14,52,22.20
2007,07,12,14,53,22.20
2007,07,12,14,54,22.20
2007,07,12,14,55,22.30
2007,07,12,14,56,22.30
2007,07,12,14,57,22.30
2007,07,12,14,58,22.30
2007,07,12,14,59,22.20
2007,07,12,15,00,22.20
2007,07,12,15,01,22.20
2007,07,12,15,02,22.10
2007,07,12,15,03,22.10
2007,07,12,15,04,22.10
2007,07,12,15,05,22.10
2007,07,12,15,06,22.20
2007,07,12,15,07,22.20
2007,07,12,15,08,22.20
2007,07,12,15,09,22.00
2007,07,12,15,10,22.00
2007,07,12,15,11,21.90
2007,07,12,15,12,21.90
2007,07,12,15,13,21.80
2007,07,12,15,14,21.60
2007,07,12,15,15,21.50
2007,07,12,15,16,21.40
2007,07,12,15,17,21.30
2007,07,12,15,18,21.30
2007,07,12,15,19,21.20
2007,07,12,15,20,21.10
2007,07,12,15,21,21.00
2007,07,12,15,22,20.80
2007,07,12,15,23,20.70
2007,07,12,15,24,20.70
2007,07,12,15,25,20.60
2007,07,12,15,26,20.60
2007,07,12,15,27,20.60
2007,07,12,15,28,20.60
2007,07,12,15,29,20.70
2007,07,12,15,30,20.70
2007,07,12,15,31,20.70
2007,07,12,15,32,20.70
2007,07,12,15,33,20.70
2007,07,12,15,34,20.70
2007,07,12,15,35,20.70
2007,07,12,15,36,20.70
2007,07,12,15,37,20.70
2007,07,12,15,38,20.70
2007,07,12,15,39,20.80
2007,07,12,15,40,20.80
2007,07,12,15,41,20.80
2007,07,12,15,42,20.80
2007,07,12,15,43,20.70
2007,07,12,15,44,20.70
2007,07,12,15,45,20.80
2007,07,12,15,46,20.80
2007,07,12,15,47,20.90
2007,07,12,15,48,20.90
2007,07,12,15,49,21.00
2007,07,12,15,50,21.10
2007,07,12,15,51,21.20
2007,07,12,15,52,21.30
2007,07,12,15,53,21.30
2007,07,12,15,54,21.50
2007,07,12,15,55,21.60
2007,07,12,15,56,21.70
2007,07,12,15,57,21.80
2007,07,12,15,58,21.90
2007,07,12,15,59,21.90
2007,07,12,16,00,22.00
2007,07,12,16,01,22.10
2007,07,12,16,02,22.20
2007,07,12,16,03,22.30
2007,07,12,16,04,22.30
2007,07,12,16,05,22.40
2007,07,12,16,06,22.40
2007,07,12,16,07,22.50
2007,07,12,16,08,22.50
2007,07,12,16,09,22.60
2007,07,12,16,10,22.60
2007,07,12,16,11,22.60
2007,07,12,16,12,22.70
2007,07,12,16,13,22.70
2007,07,12,16,14,22.80
2007,07,12,16,15,22.90
2007,07,12,16,16,23.00
2007,07,12,16,17,23.10
2007,07,12,16,18,23.20
2007,07,12,16,19,23.20
2007,07,12,16,20,23.30
2007,07,12,16,21,23.30
2007,07,12,16,22,23.40
2007,07,12,16,23,23.50
2007,07,12,16,24,23.60
2007,07,12,16,25,23.60
2007,07,12,16,26,23.70
2007,07,12,16,27,23.70
2007,07,12,16,28,23.70
2007,07,12,16,29,23.80
2007,07,12,16,30,23.90
2007,07,12,16,31,23.90
2007,07,12,16,32,24.00
2007,07,12,16,33,24.10
2007,07,12,16,34,24.10
2007,07,12,16,35,24.20
2007,07,12,16,36,24.20
2007,07,12,16,37,24.30
2007,07,12,16,38,24.40
2007,07,12,16,39,24.40
2007,07,12,16,40,24.40
2007,07,12,16,41,24.50
2007,07,12,16,42,24.50
2007,07,12,16,43,24.50
2007,07,12,16,44,24.50
2007,07,12,16,45,24.50
2007,07,12,16,46,24.60
2007,07,12,16,47,24.60
2007,07,12,16,48,24.70
2007,07,12,16,49,24.70
2007,07,12,16,50,24.70
2007,07,12,16,51,24.80
2007,07,12,16,52,24.80
2007,07,12,16,53,24.80
2007,07,12,16,54,24.80
2007,07,12,16,55,24.80
2007,07,12,16,56,24.80
2007,07,12,16,57,24.70
2007,07,12,16,58,24.60
2007,07,12,16,59,24.50
2007,07,12,17,00,24.40
2007,07,12,17,01,24.30
2007,07,12,17,02,24.10
2007,07,12,17,03,24.00
2007,07,12,17,04,23.90
2007,07,12,17,05,23.80
2007,07,12,17,06,23.80
2007,07,12,17,07,23.70
2007,07,12,17,08,23.60
2007,07,12,17,09,23.50
2007,07,12,17,10,23.30
2007,07,12,17,11,23.20
2007,07,12,17,12,23.00
2007,07,12,17,13,22.80
2007,07,12,17,14,22.70
2007,07,12,17,15,22.60
2007,07,12,17,16,22.50
2007,07,12,17,17,22.50
2007,07,12,17,18,22.40
2007,07,12,17,19,22.30